Showing default

COSMOS 2247, 22648

Orbit data source: Space-Track

COSMOS 2247, 22648 is a payload satellite owned by VKS (CIS) in LEO that was launched on Tue, 11 May 1993 UTC via a TSIKLON-3 launch vehicle from the Plesetsk Missile And Space Complex (PKMTR). Payload-class satellites include a variety of spacecraft equipped with specific instruments for various scientific and technological missions. These include communications satellites like Starlink; space stations such as the ISS; scientific satellites like the Hubble; Earth observation satellites from companies like Planet Labs, Umbra, and HawkEye 360; GPS; miniature CubeSats for education and research; and military/defense satellites.

Loading next visibility...
Identifier
22648, 1993-030C
Orbit
LEO
Country
Flag of CISCIS
Related business
Manufacturer
NPO PM
Mission
Defense Communications
Bus & Motor
STRELA-3, Unknown motor
Mass
225 kg wet, 225 kg dry
Launch date (UTC)
1993-05-11 (33 years ago)
Launch vehicle
TSIKLON-3
Launch site
Plesetsk Missile And Space Complex (PKMTR)
Object type
Payload
Rocket body
Debris
Shape & HBR
Cyl, 0.8 m
Radar Cross Section
1.257 m², Large (>1 m²)

Expand to show TLE details & history
Last TLE update: 13 hours ago

TLE from 13 hours ago
0 COSMOS 2247
1 22648U 93030C   26034.53327984  .00000023  00000-0  68262-4 0  9996
2 22648  82.5773  41.4262 0007112 237.0478 240.6713 12.63274921509203
Epoch: 2026-02-03T12:47Z
TLE epoch observation values (Epoch: 2026-02-03T12:47:55.378Z)
Latitude
61.53524°
Longitude
-118.10159°
Altitude
1,422.659 km
Speed
7.154 km/s
True Right ascension
13h 50m 22s
True Declination
61° 24' 12"
Sunlit
Object was in daylight at epoch
Visualization orbit readout
Latitude
Unknown
Longitude
Unknown
Altitude
Unknown
Speed
Unknown
Apparent Right ascension
Unknown
Apparent Declination
Unknown
Sunlit
N/A
Visualization observer readout
Local Sidereal Time
03:32:44
Azimuth
Unknown
Elevation
Unknown
Doppler factor
Unknown
Orbital elements
Apogee altitude
1,412.312 km
Perigee altitude
1,401.239 km
Semi-major axis
7,784.913 km
Eccentricity
0.00071
Inclination
82.5773°
RAAN
41.4262°
Arg. of periapsis
237.0478°
True anomaly
240.60028°
Mean anomaly
240.6713°
Eccentric anomaly
240.63579°
Mean motion
3.15982 °/min
Orbital period
113.93 mins
BSTAR
0.000068262
Loading maneuver chart data...
Computing Atmospheric mass density...
Loading historical data...
Loading historical data...
Loading historical data...
Loading historical data...
Loading historical data...
Loading historical data...
Loading historical data...

Documentation

Showing up to 5 results
|